Terminal Aerodrome Forecast
Issued by NWS Austin/San Antonio, TX

Home | Current Version | Previous Version | Text Only | Print | Product List | Glossary On
Versions: 1 2 3 4 5 6 7 8 9 10 11 12 13 14 15 16 17
000
FTUS44 KEWX 041000 AAA
TAFAUS
TAF AMD
KAUS 041000Z 0410/0512 VRB03KT 6SM BR BKN006
     FM041200 16005KT 4SM BR OVC004
     FM041500 16010KT P6SM OVC015
     FM041800 15015KT P6SM SCT040=

USA.gov is the U.S. government's official web portal to all federal, state and local government web resources and services.